Location: Silent Lake
(44.9206°N, 78.0708°W)
Time: 14:10:15
(UTC-04:00)

SL-8 R/B - Pass Details

Date: 19 April 2018
Orbit: 656 x 668 km, 48.4° (Epoch: 20 September)

Event Time Altitude Azimuth Distance (km) Brightness Sun altitude
Rises 21:33:40 0° 216° (SW) 2,972 7.1 -15.3°
Reaches altitude 10° 21:36:09 10° 207° (SSW) 2,065 6.2 -15.6°
Maximum altitude 21:40:28 34° 143° (SE) 1,075 4.3 -16.3°
Enters shadow 21:41:53 28° 108° (ESE) 1,224 4.5 -16.5°
